NA0H Weather Reports


time (UTC)temp
F
wind
direction
speed
knots
gust
knots
rain 1hr
in
rain 24hr
in
rain mn
in
humidity
%
barometer
mb
20260504034503 63 201 11.3 19.1 0.00 0.00 0.00 37 990.9
20260504034003 63 200 11.3 19.1 0.00 0.00 0.00 37 991.0
20260504033503 63 202 11.3 17.4 0.00 0.00 0.00 38 991.1
20260504033215 63 201 10.4 17.4 0.00 0.00 0.00 37 991.2
20260504032503 63 200 10.4 17.4 0.00 0.00 0.00 38 991.4
20260504032003 62 201 10.4 15.6 0.00 0.00 0.00 39 991.5
20260504031503 62 200 9.6 17.4 0.00 0.00 0.00 38 991.7
20260504031003 62 202 9.6 17.4 0.00 0.00 0.00 40 991.8
20260504030503 62 199 9.6 16.5 0.00 0.00 0.00 39 992.0
20260504030003 62 197 8.7 14.8 0.00 0.00 0.00 40 992.2
20260504025503 62 198 8.7 13.9 0.00 0.00 0.00 41 992.4
20260504025003 62 197 9.6 13.9 0.00 0.00 0.00 39 992.5
20260504024503 62 197 8.7 13.9 0.00 0.00 0.00 41 992.6
20260504024217 62 196 8.7 13.9 0.00 0.00 0.00 39 992.6
20260504023503 62 189 8.7 13.0 0.00 0.00 0.00 40 992.8
20260504023003 62 187 7.8 12.2 0.00 0.00 0.00 41 993.0
20260504022503 62 193 7.0 12.2 0.00 0.00 0.00 39 993.1
20260504022217 62 196 7.0 11.3 0.00 0.00 0.00 40 993.2
20260504021718 63 198 7.0 11.3 0.00 0.00 0.00 40 993.4
20260504021003 63 197 7.0 10.4 0.00 0.00 0.00 38 993.7
20260504020503 63 198 7.0 11.3 0.00 0.00 0.00 39 993.7
20260504020003 63 197 7.0 11.3 0.00 0.00 0.00 38 993.9
20260504015718 63 195 6.1 10.4 0.00 0.00 0.00 39 994.0
20260504015003 63 201 6.1 12.2 0.00 0.00 0.00 38 994.0
20260504014503 63 209 6.1 12.2 0.00 0.00 0.00 39 994.2
20260504014003 63 212 7.0 11.3 0.00 0.00 0.00 38 994.3
20260504013503 63 214 7.0 11.3 0.00 0.00 0.00 38 994.5
20260504013003 64 212 6.1 11.3 0.00 0.00 0.00 38 994.6
20260504012503 64 211 6.1 10.4 0.00 0.00 0.00 37 994.6
20260504012003 64 213 7.0 13.9 0.00 0.00 0.00 37 994.8
20260504011503 64 212 7.8 13.9 0.00 0.00 0.00 37 994.9
20260504011003 64 213 7.0 13.9 0.00 0.00 0.00 36 995.1
20260504010503 64 217 7.0 14.8 0.00 0.00 0.00 38 995.2
20260504010003 64 217 7.0 14.8 0.00 0.00 0.00 37 995.3
20260504005503 64 214 7.0 13.0 0.00 0.00 0.00 38 995.4
20260504005003 64 215 7.8 14.8 0.00 0.00 0.00 37 995.4
20260504004503 64 218 7.8 14.8 0.00 0.00 0.00 38 995.5
20260504004003 64 220 7.8 13.0 0.00 0.00 0.00 37 995.7
20260504003503 65 219 8.7 13.9 0.00 0.00 0.00 35 995.8
20260504003218 65 220 9.6 17.4 0.00 0.00 0.00 35 995.8
20260504002503 65 221 8.7 17.4 0.00 0.00 0.00 36 995.9
20260504002003 64 224 7.8 13.0 0.00 0.00 0.00 36 996.1
20260504001503 64 230 9.6 14.8 0.00 0.00 0.00 36 996.2
20260504001218 64 229 8.7 14.8 0.00 0.00 0.00 35 996.3
20260504000503 64 221 8.7 16.5 0.00 0.00 0.00 37 996.4
20260504000003 64 224 9.6 16.5 0.00 0.00 0.00 36 996.5
20260503235503 64 227 10.4 17.4 0.00 0.00 0.00 36 996.5
20260503235003 64 231 11.3 20.0 0.00 0.00 0.00 36 996.5
20260503234503 64 236 11.3 20.0 0.00 0.00 0.00 35 996.8
20260503234216 64 239 11.3 16.5 0.00 0.00 0.00 37 996.7
20260503233503 64 237 11.3 17.4 0.00 0.00 0.00 37 996.9
20260503233003 64 240 10.4 17.4 0.00 0.00 0.00 37 997.0
20260503232503 64 243 11.3 20.9 0.00 0.00 0.00 37 997.1
20260503232216 64 240 11.3 20.9 0.00 0.00 0.00 36 997.3
20260503231717 64 254 11.3 20.9 0.00 0.00 0.00 36 997.4
20260503231003 65 248 13.0 20.9 0.00 0.00 0.00 34 997.6
20260503230503 65 246 11.3 19.1 0.00 0.00 0.00 35 997.8
20260503230003 65 256 10.4 17.4 0.00 0.00 0.00 34 997.9
20260503225503 64 250 10.4 17.4 0.00 0.00 0.00 37 998.1
20260503225003 64 249 10.4 18.2 0.00 0.00 0.00 36 998.2
20260503224503 64 256 11.3 18.2 0.00 0.00 0.00 37 998.3
20260503224003 64 256 12.2 19.1 0.00 0.00 0.00 37 998.4
20260503223716 64 256 12.2 19.1 0.00 0.00 0.00 37 998.4
20260503223003 64 263 12.2 20.0 0.00 0.00 0.00 36 998.6
20260503222503 63 263 10.4 20.0 0.00 0.00 0.00 39 998.7
20260503222003 63 247 10.4 18.2 0.00 0.00 0.00 38 998.7
20260503221503 63 257 11.3 15.6 0.00 0.00 0.00 38 998.8
20260503221003 64 261 12.2 17.4 0.00 0.00 0.00 38 999.0
20260503220503 63 249 11.3 17.4 0.00 0.00 0.00 39 999.0
20260503220003 63 244 12.2 19.1 0.00 0.00 0.00 40 999.2
20260503215503 63 250 12.2 20.0 0.00 0.00 0.00 39 999.3
20260503215003 62 262 10.4 20.0 0.00 0.00 0.00 41 999.4
20260503214503 63 269 8.7 16.5 0.00 0.00 0.00 39 999.6
20260503214003 63 269 7.8 15.6 0.00 0.00 0.00 38 999.8
20260503213503 62 252 7.8 14.8 0.00 0.00 0.00 40 999.9
20260503213003 62 246 9.6 16.5 0.00 0.00 0.00 38 1000.0
20260503212503 62 256 9.6 16.5 0.00 0.00 0.00 36 1000.1
20260503212003 62 269 10.4 16.5 0.00 0.00 0.00 38 1000.3
20260503211503 63 277 12.2 16.5 0.00 0.00 0.00 35 1000.5
20260503211003 62 276 11.3 15.6 0.00 0.00 0.00 37 1000.6
20260503210503 62 266 10.4 16.5 0.00 0.00 0.00 35 1000.6
20260503210003 62 269 9.6 16.5 0.00 0.00 0.00 36 1000.6
20260503205503 61 270 9.6 15.6 0.00 0.00 0.00 39 1000.9
20260503205003 61 267 10.4 15.6 0.00 0.00 0.00 35 1001.0
20260503204503 61 253 9.6 15.6 0.00 0.00 0.00 37 1001.1
20260503204003 61 236 10.4 15.6 0.00 0.00 0.00 35 1001.2
20260503203503 61 243 10.4 15.6 0.00 0.00 0.00 37 1001.2
20260503203003 61 253 9.6 14.8 0.00 0.00 0.00 36 1001.3
20260503202503 60 248 9.6 16.5 0.00 0.00 0.00 40 1001.4
20260503202003 61 247 9.6 16.5 0.00 0.00 0.00 38 1001.4
20260503201503 61 253 10.4 14.8 0.00 0.00 0.00 37 1001.6
20260503201003 60 257 10.4 14.8 0.00 0.00 0.00 39 1001.7
20260503200503 60 250 10.4 20.0 0.00 0.00 0.00 36 1001.8
20260503200003 61 259 10.4 20.0 0.00 0.00 0.00 36 1001.9
20260503195503 60 258 11.3 19.1 0.00 0.00 0.00 38 1002.0
20260503195003 60 246 12.2 19.1 0.00 0.00 0.00 39 1002.2
20260503194503 59 245 10.4 16.5 0.00 0.00 0.00 39 1002.3
20260503194003 59 246 10.4 16.5 0.00 0.00 0.00 39 1002.4
20260503193503 59 252 11.3 17.4 0.00 0.00 0.00 39 1002.7
20260503193003 59 258 10.4 17.4 0.00 0.00 0.00 40 1002.7
20260503192503 59 261 8.7 13.9 0.00 0.00 0.00 38 1002.8
20260503192003 59 259 7.8 20.0 0.00 0.00 0.00 38 1002.8
20260503191719 58 252 8.7 20.0 0.00 0.00 0.00 42 1003.0
20260503191003 58 246 9.6 14.8 0.00 0.00 0.00 44 1003.2
20260503190503 58 267 10.4 19.1 0.00 0.00 0.00 43 1003.2
20260503190003 58 257 12.2 19.1 0.00 0.00 0.00 42 1003.3
20260503185503 58 243 10.4 17.4 0.00 0.00 0.00 38 1003.6
20260503185216 57 245 9.6 15.6 0.00 0.00 0.00 41 1003.6
20260503184503 57 248 9.6 15.6 0.00 0.00 0.00 44 1003.8
20260503184003 57 260 9.6 15.6 0.00 0.00 0.00 40 1003.9
20260503183503 57 271 9.6 14.8 0.00 0.00 0.00 40 1004.0
20260503183216 57 266 9.6 14.8 0.00 0.00 0.00 45 1004.1
20260503182503 58 272 8.7 14.8 0.00 0.00 0.00 42 1004.3
20260503182003 57 285 8.7 14.8 0.00 0.00 0.00 40 1004.3
20260503181504 57 285 8.7 15.6 0.00 0.00 0.00 40 1004.4
20260503181003 56 284 10.4 16.5 0.00 0.00 0.00 42 1004.6
20260503180503 56 288 10.4 16.5 0.00 0.00 0.00 41 1004.6
20260503180003 56 290 8.7 15.6 0.00 0.00 0.00 44 1004.6
20260503175503 56 292 9.6 14.8 0.00 0.00 0.00 46 1004.7
20260503175003 55 296 11.3 15.6 0.00 0.00 0.00 43 1004.8
20260503174503 55 290 11.3 15.6 0.00 0.00 0.00 45 1004.9
20260503174003 55 289 8.7 15.6 0.00 0.00 0.00 44 1005.0
20260503173718 56 293 8.7 14.8 0.00 0.00 0.00 44 1005.0
20260503173003 55 281 8.7 14.8 0.00 0.00 0.00 46 1005.2
20260503172503 54 278 8.7 12.2 0.00 0.00 0.00 47 1005.4
20260503172218 54 287 8.7 12.2 0.00 0.00 0.00 46 1005.3
20260503171503 55 292 8.7 13.0 0.00 0.00 0.00 45 1005.5
20260503171003 54 290 9.6 13.9 0.00 0.00 0.00 48 1005.6
20260503170503 54 292 8.7 13.9 0.00 0.00 0.00 45 1005.6
20260503151003 49 282 6.1 7.8 0.00 0.00 0.00 56 1006.7
20260503150503 49 288 7.0 12.2 0.00 0.00 0.00 56 1006.6
20260503131003 41 360 0.9 3.5 0.00 0.00 0.00 76 1006.8
20260503130503 40 360 0.0 1.7 0.00 0.00 0.00 78 1006.8
20260503130216 40 360 0.0 1.7 0.00 0.00 0.00 77 1006.8
20260503110503 40 360 1.7 2.6 0.00 0.00 0.00 84 1005.9
20260503090503 42 360 1.7 3.5 0.00 0.00 0.00 90 1005.3
20260503090218 42 360 1.7 3.5 0.00 0.00 0.00 90 1005.3
20260503081503 41 0 0.0 0.0 0.00 0.00 0.00 90 1005.2
20260503081003 41 0 0.0 0.0 0.00 0.00 0.00 90 1005.1
20260503080503 41 0 0.0 0.0 0.00 0.00 0.00 90 1005.1
20260503072717 42 0 0.0 0.0 0.00 0.00 0.00 89 1004.9
20260503072003 42 0 0.0 0.0 0.00 0.00 0.00 89 1005.0
20260503071503 42 0 0.0 0.0 0.00 0.00 0.00 88 1005.0
20260503071216 42 0 0.0 0.0 0.00 0.00 0.00 88 1005.0
20260503070503 43 0 0.0 0.0 0.00 0.00 0.00 88 1005.0
20260503054503 46 0 0.0 0.0 0.00 0.00 0.00 81 1005.1
20260503054003 46 0 0.0 0.0 0.00 0.00 0.00 81 1005.0
20260503053503 46 0 0.0 0.0 0.00 0.00 0.00 80 1005.0
20260503053003 46 0 0.0 0.0 0.00 0.00 0.00 80 1005.0
20260503052503 47 0 0.0 0.0 0.00 0.00 0.00 79 1004.9
20260503052003 47 0 0.0 0.0 0.00 0.00 0.00 79 1004.9
20260503051503 47 0 0.0 0.0 0.00 0.00 0.00 78 1004.9
20260503051003 48 0 0.0 0.0 0.00 0.00 0.00 78 1004.9
20260503050503 48 0 0.0 0.0 0.00 0.00 0.00 77 1004.8
20260503050003 48 0 0.0 0.0 0.00 0.00 0.00 77 1004.7
20260503045503 48 0 0.0 0.0 0.00 0.00 0.00 77 1004.7
20260503045003 48 0 0.0 0.0 0.00 0.00 0.00 77 1004.8
20260503044503 48 0 0.0 0.0 0.00 0.00 0.00 77 1004.8
20260503044003 48 0 0.0 0.0 0.00 0.00 0.00 77 1004.8
20260503043718 48 0 0.0 0.0 0.00 0.00 0.00 77 1004.8
20260503043003 49 0 0.0 0.0 0.00 0.00 0.00 76 1004.9
20260503042503 49 0 0.0 0.0 0.00 0.00 0.00 76 1004.9
20260503042003 49 0 0.0 0.0 0.00 0.00 0.00 76 1004.9
20260503041503 49 0 0.0 0.0 0.00 0.00 0.00 76 1004.9
20260503041003 49 0 0.0 0.0 0.00 0.00 0.00 76 1004.9
20260503040715 49 0 0.0 0.0 0.00 0.00 0.00 75 1004.9
20260503040003 50 0 0.0 0.0 0.00 0.00 0.00 74 1004.9
20260503035717 50 0 0.0 0.0 0.00 0.00 0.00 74 1004.9
20260503035003 50 0 0.0 0.0 0.00 0.00 0.00 73 1004.9